| time (UTC) | temp F | wind direction | speed knots | gust knots | rain 1hr in | rain 24hr in | rain mn in | humidity % | barometer mb |
| 20260503213033 | 58 | 286 | 8.7 | 15.6 | 0.00 | 0.00 | 0.00 | 76 | 1013.4 |
| 20260503211532 | 58 | 263 | 8.7 | 14.8 | 0.00 | 0.00 | 0.00 | 76 | 1013.5 |
| 20260503210034 | 58 | 291 | 7.0 | 13.9 | 0.00 | 0.00 | 0.00 | 77 | 1013.5 |
| 20260503204533 | 58 | 295 | 5.2 | 12.2 | 0.00 | 0.00 | 0.00 | 77 | 1013.3 |
| 20260503203040 | 58 | 251 | 7.0 | 13.0 | 0.00 | 0.00 | 0.00 | 77 | 1013.5 |
| 20260503201532 | 58 | 256 | 7.8 | 12.2 | 0.00 | 0.00 | 0.00 | 75 | 1013.6 |
| 20260503200032 | 58 | 229 | 4.3 | 11.3 | 0.00 | 0.00 | 0.00 | 77 | 1013.6 |
| 20260503194534 | 58 | 254 | 7.8 | 13.0 | 0.00 | 0.00 | 0.00 | 77 | 1013.5 |
| 20260503193037 | 57 | 252 | 4.3 | 10.4 | 0.00 | 0.00 | 0.00 | 78 | 1013.7 |
| 20260503191536 | 57 | 294 | 3.5 | 10.4 | 0.00 | 0.00 | 0.00 | 80 | 1013.7 |
| 20260503190032 | 58 | 256 | 7.0 | 12.2 | 0.00 | 0.00 | 0.00 | 78 | 1013.7 |
| 20260503184534 | 58 | 271 | 6.1 | 11.3 | 0.00 | 0.00 | 0.00 | 78 | 1013.7 |
| 20260503183034 | 58 | 271 | 5.2 | 9.6 | 0.00 | 0.00 | 0.00 | 78 | 1013.5 |
| 20260503181533 | 58 | 233 | 3.5 | 10.4 | 0.00 | 0.00 | 0.00 | 80 | 1013.6 |
| 20260503180043 | 56 | 288 | 7.8 | 12.2 | 0.00 | 0.00 | 0.00 | 80 | 1013.4 |
| 20260503174535 | 57 | 257 | 7.8 | 11.3 | 0.00 | 0.00 | 0.00 | 80 | 1013.5 |
| 20260503173037 | 56 | 264 | 6.1 | 9.6 | 0.00 | 0.00 | 0.00 | 80 | 1013.4 |
| 20260503171532 | 56 | 251 | 3.5 | 8.7 | 0.00 | 0.00 | 0.00 | 79 | 1013.6 |
| 20260503081532 | 52 | 360 | 6.1 | 10.4 | 0.00 | 0.00 | 0.00 | 89 | 1011.9 |
| 20260503071532 | 52 | 277 | 5.2 | 12.2 | 0.00 | 0.00 | 0.00 | 89 | 1011.9 |
| 20260503060104 | 52 | 290 | 7.0 | 12.2 | 0.00 | 0.00 | 0.00 | 87 | 1012.1 |
| 20260503054538 | 52 | 360 | 7.8 | 13.9 | 0.00 | 0.00 | 0.00 | 87 | 1012.3 |
| 20260503053033 | 52 | 360 | 7.8 | 12.2 | 0.00 | 0.00 | 0.00 | 88 | 1012.6 |
| 20260503051529 | 52 | 252 | 8.7 | 13.9 | 0.00 | 0.00 | 0.00 | 88 | 1012.5 |
| 20260503050034 | 52 | 315 | 8.7 | 13.9 | 0.00 | 0.00 | 0.00 | 88 | 1012.5 |
| 20260503044534 | 52 | 276 | 9.6 | 14.8 | 0.00 | 0.00 | 0.00 | 88 | 1012.4 |
| 20260503043041 | 52 | 325 | 8.7 | 13.9 | 0.00 | 0.00 | 0.00 | 88 | 1012.3 |
| 20260503041533 | 52 | 360 | 8.7 | 14.8 | 0.00 | 0.00 | 0.00 | 88 | 1012.2 |
| 20260503040034 | 52 | 360 | 6.1 | 12.2 | 0.00 | 0.00 | 0.00 | 88 | 1012.2 |
| 20260503034532 | 52 | 290 | 8.7 | 13.0 | 0.00 | 0.00 | 0.00 | 88 | 1012.2 |
| 20260503033036 | 52 | 269 | 9.6 | 14.8 | 0.00 | 0.00 | 0.00 | 88 | 1011.8 |
| 20260503031534 | 52 | 252 | 11.3 | 15.6 | 0.00 | 0.00 | 0.00 | 88 | 1011.7 |
| 20260503030034 | 52 | 360 | 9.6 | 15.6 | 0.00 | 0.00 | 0.00 | 88 | 1011.5 |
| 20260503024531 | 52 | 360 | 8.7 | 17.4 | 0.00 | 0.00 | 0.00 | 87 | 1011.5 |
| 20260503023034 | 52 | 284 | 7.8 | 13.0 | 0.00 | 0.00 | 0.00 | 87 | 1011.6 |
| 20260503021547 | 53 | 360 | 9.6 | 13.9 | 0.00 | 0.00 | 0.00 | 86 | 1011.6 |
| 20260503020059 | 53 | 263 | 8.7 | 18.2 | 0.00 | 0.00 | 0.00 | 86 | 1011.6 |
| 20260503014533 | 53 | 273 | 10.4 | 16.5 | 0.00 | 0.00 | 0.00 | 85 | 1011.6 |
| 20260503013031 | 53 | 282 | 10.4 | 16.5 | 0.00 | 0.00 | 0.00 | 84 | 1011.7 |
| 20260503011532 | 54 | 265 | 8.7 | 15.6 | 0.00 | 0.00 | 0.00 | 84 | 1011.9 |
| 20260503010030 | 54 | 246 | 9.6 | 20.0 | 0.00 | 0.00 | 0.00 | 84 | 1012.0 |
| 20260503004534 | 54 | 301 | 9.6 | 14.8 | 0.00 | 0.00 | 0.00 | 83 | 1012.0 |
| 20260503003048 | 54 | 360 | 7.8 | 16.5 | 0.00 | 0.00 | 0.00 | 83 | 1012.1 |
| 20260503001535 | 55 | 258 | 9.6 | 16.5 | 0.00 | 0.00 | 0.00 | 82 | 1012.4 |
| 20260503000034 | 55 | 257 | 10.4 | 15.6 | 0.00 | 0.00 | 0.00 | 82 | 1012.4 |
| 20260502234533 | 55 | 292 | 7.8 | 16.5 | 0.00 | 0.00 | 0.00 | 82 | 1012.4 |
| 20260502233032 | 54 | 277 | 8.7 | 14.8 | 0.00 | 0.00 | 0.00 | 82 | 1012.5 |
| 20260502231532 | 55 | 244 | 8.7 | 15.6 | 0.00 | 0.00 | 0.00 | 82 | 1012.6 |
| 20260502230031 | 56 | 271 | 9.6 | 16.5 | 0.00 | 0.00 | 0.00 | 81 | 1012.9 |
| 20260502224535 | 55 | 246 | 8.7 | 15.6 | 0.00 | 0.00 | 0.00 | 82 | 1013.2 |
| 20260502223031 | 55 | 297 | 7.8 | 13.0 | 0.00 | 0.00 | 0.00 | 82 | 1013.5 |
| 20260502221531 | 55 | 271 | 8.7 | 12.2 | 0.00 | 0.00 | 0.00 | 81 | 1013.6 |
| 20260502220034 | 54 | 263 | 8.7 | 12.2 | 0.00 | 0.00 | 0.00 | 82 | 1013.9 |
| 20260502214531 | 54 | 251 | 7.0 | 14.8 | 0.00 | 0.00 | 0.00 | 82 | 1013.9 |